Time,TemperatureF,DewpointF,PressureIn,WindDirection,WindDirectionDegrees,WindSpeedMPH,WindSpeedGustMPH,Humidity,HourlyPrecipIn,Conditions,Clouds,dailyrainin,SolarRadiationWatts/m^2,SoftwareType,DateUTC
2013-05-16 00:02:00,74.0,22.0,-100.00,West,263,28.0,54.0,14,0.00,,,0.00,0.000000,,2013-05-16 07:02:00,
2013-05-16 00:12:00,74.0,22.0,-100.00,West,263,28.0,54.0,14,0.00,,,0.00,0.000000,,2013-05-16 07:12:00,
2013-05-16 00:24:00,74.0,22.0,-100.00,West,263,28.0,54.0,14,0.00,,,0.00,0.000000,,2013-05-16 07:24:00,
2013-05-16 00:54:00,73.0,21.0,-100.00,WSW,256,31.0,53.0,14,0.00,,,0.00,0.000000,,2013-05-16 07:54:00,
2013-05-16 01:03:00,73.0,21.0,-100.00,WSW,256,31.0,53.0,14,0.00,,,0.00,0.000000,,2013-05-16 08:03:00,
2013-05-16 01:13:00,73.0,21.0,-100.00,WSW,256,31.0,53.0,14,0.00,,,0.00,0.000000,,2013-05-16 08:13:00,
2013-05-16 01:23:00,73.0,21.0,-100.00,WSW,256,31.0,53.0,14,0.00,,,0.00,0.000000,,2013-05-16 08:23:00,
2013-05-16 01:55:00,72.0,15.0,-100.00,West,272,28.0,51.0,11,0.00,,,0.00,0.000000,,2013-05-16 08:55:00,
2013-05-16 02:04:00,72.0,15.0,-100.00,West,272,28.0,51.0,11,0.00,,,0.00,0.000000,,2013-05-16 09:04:00,
2013-05-16 02:14:00,72.0,15.0,-100.00,West,272,28.0,51.0,11,0.00,,,0.00,0.000000,,2013-05-16 09:14:00,
2013-05-16 02:24:00,72.0,15.0,-100.00,West,272,28.0,51.0,11,0.00,,,0.00,0.000000,,2013-05-16 09:24:00,
2013-05-16 02:55:00,72.0,10.0,-100.00,West,262,27.0,50.0,9,0.00,,,0.00,0.000000,,2013-05-16 09:55:00,
2013-05-16 03:04:00,72.0,10.0,-100.00,West,262,27.0,50.0,9,0.00,,,0.00,0.000000,,2013-05-16 10:04:00,
2013-05-16 03:15:00,72.0,10.0,-100.00,West,262,27.0,50.0,9,0.00,,,0.00,0.000000,,2013-05-16 10:15:00,
2013-05-16 03:24:00,72.0,10.0,-100.00,West,262,27.0,50.0,9,0.00,,,0.00,0.000000,,2013-05-16 10:24:00,
2013-05-16 03:56:00,74.0,9.0,-100.00,West,270,19.0,50.0,8,0.00,,,0.00,0.000000,,2013-05-16 10:56:00,
2013-05-16 04:05:00,74.0,9.0,-100.00,West,270,19.0,50.0,8,0.00,,,0.00,0.000000,,2013-05-16 11:05:00,
2013-05-16 04:14:00,74.0,9.0,-100.00,West,270,19.0,50.0,8,0.00,,,0.00,0.000000,,2013-05-16 11:14:00,
2013-05-16 04:25:00,74.0,9.0,-100.00,West,270,19.0,50.0,8,0.00,,,0.00,0.000000,,2013-05-16 11:25:00,
2013-05-16 04:57:00,73.0,11.0,-100.00,West,272,13.0,41.0,9,0.00,,,0.00,0.000000,,2013-05-16 11:57:00,
2013-05-16 05:06:00,73.0,11.0,-100.00,West,272,13.0,41.0,9,0.00,,,0.00,0.000000,,2013-05-16 12:06:00,
2013-05-16 05:53:00,69.0,16.0,-100.00,NW,309,27.0,38.0,13,0.00,,,0.00,0.000000,,2013-05-16 12:53:00,
2013-05-16 06:04:00,69.0,16.0,-100.00,NW,309,27.0,38.0,13,0.00,,,0.00,0.000000,,2013-05-16 13:04:00,
2013-05-16 06:55:00,74.0,14.0,-100.00,NW,305,14.0,30.0,10,0.00,,,0.00,11.000000,,2013-05-16 13:55:00,
2013-05-16 07:05:00,74.0,14.0,-100.00,NW,305,14.0,30.0,10,0.00,,,0.00,11.000000,,2013-05-16 14:05:00,
2013-05-16 07:15:00,74.0,14.0,-100.00,NW,305,14.0,30.0,10,0.00,,,0.00,11.000000,,2013-05-16 14:15:00,
2013-05-16 07:23:00,74.0,14.0,-100.00,NW,305,14.0,30.0,10,0.00,,,0.00,11.000000,,2013-05-16 14:23:00,
2013-05-16 07:26:00,73.0,15.0,-100.00,NW,305,18.0,32.0,11,0.00,,,0.00,106.000000,,2013-05-16 14:26:00,
2013-05-16 07:56:00,73.0,15.0,-100.00,NW,305,18.0,32.0,11,0.00,,,0.00,106.000000,,2013-05-16 14:56:00,
2013-05-16 08:08:00,73.0,15.0,-100.00,NW,305,18.0,32.0,11,0.00,,,0.00,106.000000,,2013-05-16 15:08:00,
2013-05-16 08:17:00,73.0,15.0,-100.00,NW,305,18.0,32.0,11,0.00,,,0.00,106.000000,,2013-05-16 15:17:00,
2013-05-16 08:26:00,78.0,15.0,-100.00,SE,136,5.0,23.0,9,0.00,,,0.00,600.000000,,2013-05-16 15:26:00,
2013-05-16 09:00:00,78.0,15.0,-100.00,SE,136,5.0,23.0,9,0.00,,,0.00,600.000000,,2013-05-16 16:00:00,
2013-05-16 09:09:00,78.0,15.0,-100.00,SE,136,5.0,23.0,9,0.00,,,0.00,600.000000,,2013-05-16 16:09:00,
2013-05-16 09:19:00,78.0,15.0,-100.00,SE,136,5.0,23.0,9,0.00,,,0.00,600.000000,,2013-05-16 16:19:00,
2013-05-16 09:26:00,81.0,24.0,-100.00,ENE,61,5.0,11.0,12,0.00,,,0.00,531.000000,,2013-05-16 16:26:00,
2013-05-16 10:00:00,81.0,24.0,-100.00,ENE,61,5.0,11.0,12,0.00,,,0.00,531.000000,,2013-05-16 17:00:00,
2013-05-16 10:10:00,81.0,24.0,-100.00,ENE,61,5.0,11.0,12,0.00,,,0.00,531.000000,,2013-05-16 17:10:00,
2013-05-16 10:20:00,81.0,24.0,-100.00,ENE,61,5.0,11.0,12,0.00,,,0.00,531.000000,,2013-05-16 17:20:00,
2013-05-16 10:26:00,-999.0,-99.9,-100.00,East,80,3.0,16.0,11,0.00,,,0.00,874.000000,,2013-05-16 17:26:00,
2013-05-16 11:00:00,-999.0,-99.9,-100.00,East,80,3.0,16.0,11,0.00,,,0.00,874.000000,,2013-05-16 18:00:00,
2013-05-16 11:10:00,81.0,22.0,-100.00,East,80,3.0,16.0,11,0.00,,,0.00,874.000000,,2013-05-16 18:10:00,
2013-05-16 11:20:00,81.0,22.0,-100.00,East,80,3.0,16.0,11,0.00,,,0.00,874.000000,,2013-05-16 18:20:00,
2013-05-16 11:26:00,82.0,24.0,-100.00,WSW,253,4.0,12.0,12,0.00,,,0.00,718.000000,,2013-05-16 18:26:00,
2013-05-16 12:00:00,-999.0,-99.9,-100.00,WSW,253,4.0,12.0,12,0.00,,,0.00,718.000000,,2013-05-16 19:00:00,
2013-05-16 12:10:00,82.0,24.0,-100.00,WSW,253,4.0,12.0,12,0.00,,,0.00,718.000000,,2013-05-16 19:10:00,
2013-05-16 12:20:00,82.0,24.0,-100.00,WSW,253,4.0,12.0,12,0.00,,,0.00,718.000000,,2013-05-16 19:20:00,
2013-05-16 12:26:00,79.0,27.0,-100.00,West,269,12.0,26.0,15,0.00,,,0.00,1315.000000,,2013-05-16 19:26:00,
2013-05-16 13:00:00,-999.0,-99.9,-100.00,West,269,12.0,26.0,15,0.00,,,0.00,1315.000000,,2013-05-16 20:00:00,
2013-05-16 13:10:00,-999.0,-99.9,-100.00,West,269,12.0,26.0,15,0.00,,,0.00,1315.000000,,2013-05-16 20:10:00,
2013-05-16 13:20:00,79.0,-99.9,-100.00,West,269,12.0,26.0,15,0.00,,,0.00,1315.000000,,2013-05-16 20:20:00,
2013-05-16 13:26:00,79.0,27.0,-100.00,WNW,297,14.0,26.0,15,0.00,,,0.00,1311.000000,,2013-05-16 20:26:00,
2013-05-16 14:00:00,79.0,-99.9,-100.00,WNW,297,14.0,26.0,15,0.00,,,0.00,1311.000000,,2013-05-16 21:00:00,
2013-05-16 14:10:00,79.0,-99.9,-100.00,WNW,297,14.0,26.0,15,0.00,,,0.00,1311.000000,,2013-05-16 21:10:00,
2013-05-16 14:20:00,79.0,27.0,-100.00,WNW,297,14.0,26.0,15,0.00,,,0.00,1311.000000,,2013-05-16 21:20:00,
2013-05-16 14:26:00,75.0,30.0,-100.00,West,276,17.0,35.0,19,0.00,,,0.00,1118.000000,,2013-05-16 21:26:00,
2013-05-16 15:00:00,-999.0,-99.9,-100.00,West,276,17.0,35.0,19,0.00,,,0.00,1118.000000,,2013-05-16 22:00:00,
2013-05-16 15:08:00,75.0,30.0,-100.00,West,276,17.0,35.0,19,0.00,,,0.00,1118.000000,,2013-05-16 22:08:00,
2013-05-16 15:20:00,75.0,30.0,-100.00,West,276,17.0,35.0,19,0.00,,,0.00,1118.000000,,2013-05-16 22:20:00,
2013-05-16 16:01:00,73.0,30.0,-100.00,NW,304,17.0,35.0,20,0.00,,,0.00,792.000000,,2013-05-16 23:01:00,
2013-05-16 16:06:00,73.0,30.0,-100.00,NW,304,17.0,35.0,20,0.00,,,0.00,792.000000,,2013-05-16 23:06:00,
2013-05-16 16:16:00,73.0,30.0,-100.00,NW,304,17.0,35.0,20,0.00,,,0.00,792.000000,,2013-05-16 23:16:00,
2013-05-16 16:24:00,73.0,30.0,-100.00,NW,304,17.0,35.0,20,0.00,,,0.00,792.000000,,2013-05-16 23:24:00,
2013-05-16 16:54:00,69.0,32.0,-100.00,West,281,19.0,49.0,25,0.00,,,-99.99,462.000000,,2013-05-16 23:54:00,
2013-05-16 17:02:00,69.0,32.0,-100.00,West,281,19.0,49.0,25,0.00,,,-99.99,462.000000,,2013-05-17 00:02:00,
2013-05-16 17:13:00,69.0,32.0,-100.00,West,281,19.0,49.0,25,0.00,,,-99.99,462.000000,,2013-05-17 00:13:00,
2013-05-16 17:22:00,69.0,32.0,-100.00,West,281,19.0,49.0,25,0.00,,,-99.99,462.000000,,2013-05-17 00:22:00,
2013-05-16 17:53:00,68.0,35.0,-100.00,WSW,254,16.0,51.0,29,0.00,,,0.00,167.000000,,2013-05-17 00:53:00,
2013-05-16 18:03:00,68.0,35.0,-100.00,WSW,254,16.0,51.0,29,0.00,,,0.00,167.000000,,2013-05-17 01:03:00,
2013-05-16 18:52:00,66.0,34.0,-100.00,SSW,211,12.0,41.0,31,0.00,,,0.00,45.000000,,2013-05-17 01:52:00,
2013-05-16 19:02:00,66.0,34.0,-100.00,SSW,211,12.0,41.0,31,0.00,,,0.00,45.000000,,2013-05-17 02:02:00,
2013-05-16 19:11:00,66.0,34.0,-100.00,SSW,211,12.0,41.0,31,0.00,,,0.00,45.000000,,2013-05-17 02:11:00,
2013-05-16 19:21:00,66.0,34.0,-100.00,SSW,211,12.0,41.0,31,0.00,,,0.00,45.000000,,2013-05-17 02:21:00,
2013-05-16 19:53:00,64.0,34.0,-100.00,South,187,1.0,35.0,32,0.00,,,0.00,22.000000,,2013-05-17 02:53:00,
2013-05-16 20:01:00,64.0,34.0,-100.00,South,187,1.0,35.0,32,0.00,,,0.00,22.000000,,2013-05-17 03:01:00,
2013-05-16 20:11:00,64.0,34.0,-100.00,South,187,1.0,35.0,32,0.00,,,0.00,22.000000,,2013-05-17 03:11:00,
2013-05-16 20:22:00,64.0,34.0,-100.00,South,187,1.0,35.0,32,0.00,,,0.00,22.000000,,2013-05-17 03:22:00,
2013-05-16 20:53:00,63.0,34.0,-100.00,South,170,6.0,18.0,34,0.00,,,0.00,6.000000,,2013-05-17 03:53:00,
2013-05-16 21:02:00,63.0,34.0,-100.00,South,170,6.0,18.0,34,0.00,,,0.00,6.000000,,2013-05-17 04:02:00,
2013-05-16 21:13:00,63.0,34.0,-100.00,South,170,6.0,18.0,34,0.00,,,0.00,6.000000,,2013-05-17 04:13:00,
2013-05-16 21:23:00,63.0,34.0,-100.00,South,170,6.0,18.0,34,0.00,,,0.00,6.000000,,2013-05-17 04:23:00,
2013-05-16 21:53:00,60.0,36.0,-100.00,WNW,282,14.0,47.0,40,0.00,,,0.00,0.000000,,2013-05-17 04:53:00,
2013-05-16 22:02:00,60.0,36.0,-100.00,WNW,282,14.0,47.0,40,0.00,,,0.00,0.000000,,2013-05-17 05:02:00,
2013-05-16 22:13:00,60.0,36.0,-100.00,WNW,282,14.0,47.0,40,0.00,,,0.00,0.000000,,2013-05-17 05:13:00,
2013-05-16 22:21:00,60.0,36.0,-100.00,WNW,282,14.0,47.0,40,0.00,,,0.00,0.000000,,2013-05-17 05:21:00,
2013-05-16 22:52:00,63.0,36.0,-100.00,West,266,8.0,38.0,36,0.00,,,0.00,0.000000,,2013-05-17 05:52:00,
2013-05-16 23:01:00,63.0,36.0,-100.00,West,266,8.0,38.0,36,0.00,,,0.00,0.000000,,2013-05-17 06:01:00,
2013-05-16 23:11:00,63.0,36.0,-100.00,West,266,8.0,38.0,36,0.00,,,0.00,0.000000,,2013-05-17 06:11:00,
2013-05-16 23:21:00,63.0,36.0,-100.00,West,266,8.0,38.0,36,0.00,,,0.00,0.000000,,2013-05-17 06:21:00,
2013-05-16 23:52:00,61.0,34.0,-100.00,SW,221,7.0,38.0,36,0.00,,,0.00,0.000000,,2013-05-17 06:52:00,